TUBIN
1 48900U 21059X   25244.60141047  .00088655  00000-0  78477-3 0  9996
2 48900  97.6782  61.1442 0002585 270.5354  89.5610 15.68342124233177
LEDSAT
1 49069U 21073D   25244.16457131  .00207616  00000-0  13341-2 0  9992
2 49069  97.3799 329.9343 0005927 144.8970 215.2686 15.75602984224525
CUTE
1 49263U 21088D   25244.16125515  .00028284  00000-0  49213-3 0  9992
2 49263  97.4448 323.0324 0004959 290.6081  69.4639 15.50739750217360
TeikyoSat 4
1 49396U 21102B   25244.56803171  .00003902  00000-0  25743-3 0  9993
2 49396  97.4054 279.9551 0011899 197.8945 162.1866 15.07964282209208
Z-Sat
1 49399U 21102E   25244.58257600  .00007708  00000-0  41392-3 0  9994
2 49399  97.3746 283.5987 0018328 167.5398 192.6291 15.15047949209696
KOSEN 1
1 49402U 21102H   25244.36633759  .00010429  00000-0  46709-3 0  9999
2 49402  97.3642 287.4548 0016745 141.5020 218.7414 15.21313105210020
HO-113
1 50466U 21131B   25244.64841948  .00001058  00000-0  34359-3 0  9991
2 50466  98.5087 333.5880 0003239 233.6512 126.4378 14.40902941193557
SNUGLITE 2
1 52899U 22065F   25244.59698335  .00002738  00000-0  53846-3 0  9992
2 52899  98.1800  25.8136 0007108 201.3360 158.7546 14.63398121168770
UmKA 1 (RS40S)
1 57172U 23091G   25244.57883573  .00010260  00000-0  53242-3 0  9998
2 57172  97.5508 299.5353 0015057  48.9651 311.2880 15.16227106120204
CubeBel-2 (EU11S)
1 57175U 23091K   25244.57270845  .00016842  00000-0  76543-3 0  9994
2 57175  97.5507 301.2174 0012723  55.2977 304.9455 15.20755887120313
ENSO
1 58470U 23185J   25244.64220215  .00133513  00000-0  12527-2 0  9997
2 58470  97.3647 323.0057 0005631 142.9716 217.1934 15.66741573 98141
EIRSAT-1
1 58472U 23185L   25244.53764977  .01784624  28201-2  15868-2 0  9997
2 58472  97.3387 327.3228 0009284 258.1005 101.9240 16.13541995 98420
SONATE-2
1 59112U 24043Q   25244.61106077  .00028957  00000-0  76320-3 0  9998
2 59112  97.5227  17.6739 0010669 170.1198 190.0258 15.38414174 83244
MO-122
1 60209U 24125G   25244.53643151  .00030770  00000-0  79457-3 0  9998
2 60209  97.2704  95.3348 0017261 189.7267 170.3648 15.38932021 64853
GRBBeta
1 60237U 24128C   25244.43291130  .00008310  00000-0  60335-3 0  9997
2 60237  61.9911 147.0501 0056558  75.6270 285.1090 15.03303926 62804
Curium One
1 60242U 24128H   25244.45202434  .00014015  00000-0  92845-3 0  9994
2 60242  61.9805 143.9504 0056374  72.3701 288.3537 15.06275287 62867
ROBUSTA-3A
1 60243U 24128J   25244.28276278  .00013901  00000-0  93513-3 0  9999
2 60243  61.9881 145.6638 0055850  69.8743 290.8346 15.05741667 62825
CatSat
1 60246U 24125J   25244.53423198  .00031321  00000-0  96855-3 0  9990
2 60246  97.2520  93.5538 0041329 152.8332 207.5085 15.32586999 62834
HYPERVIEW-1G (RS66S)
1 61772U 24199AP  25244.59525315  .00034622  00000-0  89992-3 0  9997
2 61772  97.3402 113.4061 0010683 246.1966 113.8160 15.38803318 89869
AO-123
1 61781U 24199AY  25244.55380761  .00010539  00000-0  37113-3 0  9996
2 61781  97.3425 111.2385 0013599 258.5748 101.3965 15.29405367 89714
ZIMSAT 2
1 61783U 24199BA  25244.55480026  .00067564  00000-0  13289-2 0  9990
2 61783  97.3361 114.7689 0009607 235.0074 125.0275 15.46989727 93108
HADES-R (SO-124)
1 62690U 25009CK  25244.48725735  .00069129  00000-0  20115-2 0  9995
2 62690  97.4035 325.2668 0003580 160.2680 199.8703 15.35166397 34992
HYDRA-T
1 62692U 25009CM  25244.51994341  .00074152  00000-0  21266-2 0  9992
2 62692  97.4030 325.3754 0003280 156.0036 204.1361 15.35600112 35002
JINJUSat 1B
1 63210U 25052A   25244.25449265  .00019484  00000-0  84534-3 0  9993
2 63210  97.4288 137.3592 0005530  51.1444 309.0285 15.22368247 25974
NUSHSAT 1
1 63211U 25052B   25244.23204784  .00021290  00000-0  91160-3 0  9998
2 63211  97.4278 137.3666 0005739  56.3425 303.8358 15.22798701 25978
TEVEL2-4
1 63213U 25052D   25244.19827315  .00020597  00000-0  89233-3 0  9993
2 63213  97.4194 137.0762 0005247  69.4240 290.7559 15.22408765 25969
TEVEL2-5
1 63214U 25052E   25244.46319970  .00020809  00000-0  90208-3 0  9997
2 63214  97.4195 137.3337 0005208  68.9515 291.2278 15.22384755 26000
TEVEL2-6
1 63215U 25052F   25244.59899620  .00021322  00000-0  92507-3 0  9992
2 63215  97.4197 137.4598 0005292  68.7780 291.4021 15.22351193 26028
TEVEL2-1
1 63217U 25052H   25243.96532047  .00022046  00000-0  96387-3 0  9995
2 63217  97.4173 136.7255 0005719  79.1116 281.0763 15.22080537 25926
TEVEL2-3
1 63218U 25052J   25244.42564406  .00020102  00000-0  87876-3 0  9996
2 63218  97.4175 137.1808 0005790  78.5490 281.6396 15.22103621 25990
TEVEL2-2
1 63219U 25052K   25244.42618998  .00020392  00000-0  89164-3 0  9996
2 63219  97.4174 137.1792 0005765  78.3920 281.7963 15.22093437 25994
TEVEL2-9
1 63237U 25052AD  25244.42818961  .00019507  00000-0  88498-3 0  9993
2 63237  97.4241 137.0146 0010157  84.8222 275.4172 15.20807740 25977
TEVEL2-7
1 63238U 25052AE  25244.23699178  .00018932  00000-0  86134-3 0  9996
2 63238  97.4240 136.8160 0010199  85.1422 275.0978 15.20716971 25944
TEVEL2-8
1 63239U 25052AF  25244.43813024  .00019331  00000-0  87996-3 0  9998
2 63239  97.4235 137.0036 0010222  85.1275 275.1127 15.20693625 25977
HYDRA-W
1 63490U 25052BL  25244.46036701  .00048315  00000-0  17833-2 0  9995
2 63490  97.4175 137.9206 0013651  81.7754 278.5033 15.27517875 26041
HADES-ICM (SO-125)
1 63492U 25052BN  25244.43984302  .00046858  00000-0  17672-2 0  9994
2 63492  97.4186 137.8092 0013874  84.5995 275.6826 15.26808978 26035
